Weather History for Erzurum, Turkey

Change the Weather History Date:

Wednesday, October 31, 2012

  Actual Average Record
Temperature  
Mean Temperature 45 °F -  
Max Temperature 63 °F 44 °F 63 °F (2012)
Min Temperature 27 °F 27 °F 5 °F (2003)
Degree Days  
Heating Degree Days 20    
Moisture  
Dew Point 34 °F    
Average Humidity 69    
Maximum Humidity 100    
Minimum Humidity 23    
Precipitation  
Precipitation 0.00 in 0.05 in - ()
Sea Level Pressure  
Sea Level Pressure 30.20 in    
Wind  
Wind Speed 2 mph ()    
Max Wind Speed 7 mph    
Max Gust Speed -    
Visibility 6.9 miles    
Events      
Averages and records for this station are not official NWS values.
T = Trace of Precipitation, MM = Missing Value Source: Averaged Metar Reports

Daily Weather History Graph

Daily Weather History Graph

Search for Another Location

Airport:

Trip Planner

Search our weather history database for the weather conditions in past years. The results will help you decide how hot, cold, wet, or windy it might be!

Date:

Astronomy

Oct. 31, 2012 Rise Set
Actual Time 5:43 AM EET 4:13 PM EET
Civil Twilight 5:15 AM EET 4:41 PM EET
Nautical Twilight 4:43 AM EET 5:13 PM EET
Astronomical Twilight 4:11 AM EET 5:45 PM EET
Moon 5:09 PM EET 7:04 AM EET
Length of Visible Light 11h 26m
Length of Day
10h 30m
Full, 98% of the Moon is Illuminated
Oct 31
Full
Nov 7
Last Quarter
Nov 14
New
Nov 20
First Quarter
Nov 28
Full

Hourly Weather History & Observations

Time (EET) Temp. Windchill Dew Point Humidity Pressure Visibility Wind Dir Wind Speed Gust Speed Precip Events Conditions
12:20 AM 37.4 °F - 32.0 °F 81% 30.18 in 6.2 mi NNW 1.2 mph - N/A   Scattered Clouds
12:50 AM 33.8 °F - 32.0 °F 93% 30.18 in 6.2 mi Variable 2.3 mph - N/A   Partly Cloudy
1:20 AM 35.6 °F - 32.0 °F 87% 30.18 in 6.2 mi Variable 2.3 mph - N/A   Partly Cloudy
1:50 AM 33.8 °F 30.8 °F 32.0 °F 93% 30.18 in - East 3.5 mph - N/A   Clear
2:00 AM 34 °F - 31 °F 86%  in 12 mi East 3.5 mph - -  
2:20 AM 32.0 °F - 30.2 °F 93% 30.18 in - Variable 1.2 mph - N/A   Clear
2:50 AM 32.0 °F - 30.2 °F 93% 30.18 in - Variable 1.2 mph - N/A   Clear
3:20 AM 30.2 °F - 28.4 °F 93% 30.18 in - Variable 2.3 mph - N/A   Clear
3:50 AM 30.2 °F 25.4 °F 30.2 °F 100% 30.18 in - SW 4.6 mph - N/A   Clear
4:20 AM 30.2 °F - 30.2 °F 100% 30.18 in - Calm Calm - N/A   Clear
4:50 AM 30.2 °F - 28.4 °F 93% 30.18 in - Variable 2.3 mph - N/A   Clear
5:20 AM 30.2 °F 26.7 °F 28.4 °F 93% 30.18 in - SSE 3.5 mph - N/A   Clear
5:50 AM 28.4 °F 24.6 °F 28.4 °F 100% 30.18 in - WSW 3.5 mph - N/A   Clear
6:20 AM 28.4 °F - 28.4 °F 100% 30.21 in - Variable 1.2 mph - N/A   Clear
6:50 AM 32.0 °F - 30.2 °F 93% 30.21 in - Variable 1.2 mph - N/A   Clear
7:20 AM 37.4 °F - 33.8 °F 87% 30.21 in - Variable 2.3 mph - N/A   Clear
7:50 AM 39.2 °F - 35.6 °F 87% 30.21 in - Calm Calm - N/A   Clear
8:00 AM 40 °F - 35 °F 74%  in 6 mi Calm Calm - -  
8:20 AM 46.4 °F - 35.6 °F 66% 30.24 in - Variable 1.2 mph - N/A   Clear
8:50 AM 48.2 °F - 35.6 °F 62% 30.24 in - Variable 1.2 mph - N/A   Clear
9:20 AM 50.0 °F - 35.6 °F 58% 30.24 in - Variable 1.2 mph - N/A   Clear
9:50 AM 53.6 °F - 33.8 °F 47% 30.24 in 6.2 mi Variable 2.3 mph - N/A   Partly Cloudy
10:20 AM 53.6 °F - 33.8 °F 47% 30.21 in 6.2 mi Variable 2.3 mph - N/A   Partly Cloudy
10:50 AM 55.4 °F - 33.8 °F 44% 30.21 in 6.2 mi Variable 2.3 mph - N/A   Partly Cloudy
11:20 AM 57.2 °F - 33.8 °F 41% 30.21 in 6.2 mi West 3.5 mph - N/A   Partly Cloudy
11:50 AM 57.2 °F - 33.8 °F 41% 30.18 in 6.2 mi ENE 4.6 mph - N/A   Partly Cloudy
12:20 PM 59.0 °F - 33.8 °F 39% 30.18 in 6.2 mi East 5.8 mph - N/A   Partly Cloudy
12:50 PM 59.0 °F - 35.6 °F 42% 30.18 in 6.2 mi ENE 4.6 mph - N/A   Scattered Clouds
1:20 PM 59.0 °F - 35.6 °F 42% 30.18 in 6.2 mi NE 4.6 mph - N/A   Scattered Clouds
1:50 PM 62.6 °F - 35.6 °F 37% 30.18 in 6.2 mi Variable 1.2 mph - N/A   Scattered Clouds
2:00 PM 63 °F - 34 °F 23%  in 12 mi WSW 1.2 mph - -   Partly Cloudy
2:20 PM 62.6 °F - 33.8 °F 34% 30.18 in 6.2 mi Variable 1.2 mph - N/A   Scattered Clouds
2:50 PM 60.8 °F - 33.8 °F 36% 30.18 in 6.2 mi Variable 2.3 mph - N/A   Scattered Clouds
3:20 PM 59.0 °F - 35.6 °F 42% 30.18 in 6.2 mi North 2.3 mph - N/A   Scattered Clouds
3:50 PM 57.2 °F - 35.6 °F 44% 30.18 in 6.2 mi Calm Calm - N/A   Scattered Clouds
4:20 PM 53.6 °F - 37.4 °F 54% 30.18 in 6.2 mi Calm Calm - N/A   Mostly Cloudy
4:50 PM 53.6 °F - 35.6 °F 51% 30.18 in 6.2 mi SW 4.6 mph - N/A   Mostly Cloudy
5:20 PM 50.0 °F - 39.2 °F 66% 30.18 in - Variable 1.2 mph - N/A   Clear
5:50 PM 50.0 °F - 37.4 °F 62% 30.21 in - WSW 4.6 mph - N/A   Clear
6:20 PM 48.2 °F - 37.4 °F 66% 30.21 in - Calm Calm - N/A   Clear
6:50 PM 50.0 °F - 37.4 °F 62% 30.21 in - Variable 2.3 mph - N/A   Clear
7:20 PM 50.0 °F - 37.4 °F 62% 30.21 in - SW 4.6 mph - N/A   Clear
7:50 PM 48.2 °F - 37.4 °F 66% 30.21 in - Variable 2.3 mph - N/A   Clear
8:00 PM 48 °F - 37 °F 56%  in 12 mi West 4.6 mph - -   Scattered Clouds
8:20 PM 46.4 °F 44.3 °F 37.4 °F 71% 30.24 in - NW 4.6 mph - N/A   Clear
8:50 PM 44.6 °F - 37.4 °F 76% 30.24 in - Variable 2.3 mph - N/A   Clear
9:20 PM 44.6 °F - 37.4 °F 76% 30.24 in - Calm Calm - N/A   Clear
9:50 PM 42.8 °F - 37.4 °F 81% 30.24 in - ESE 2.3 mph - N/A   Clear
10:20 PM 41.0 °F - 37.4 °F 87% 30.24 in - Variable 2.3 mph - N/A   Clear
10:50 PM 42.8 °F - 37.4 °F 81% 30.24 in - Calm Calm - N/A   Clear
11:20 PM 42.8 °F 41.1 °F 39.2 °F 87% 30.24 in - NNE 3.5 mph - N/A   Clear
11:50 PM 44.6 °F 40.7 °F 39.2 °F 81% 30.21 in 6.2 mi ENE 6.9 mph - N/A   Scattered Clouds